| time (UTC) | temp F | wind direction | speed MPH | gust MPH | rain 1hr in | rain 24hr in | rain mn in | humidity % | barometer mb |
| 20260507014551 | 56 | 265 | 0.0 | 3.0 | 0.00 | 0.00 | 0.00 | 82 | 1020.0 |
| 20260507013050 | 57 | 265 | 0.0 | 3.0 | 0.00 | 0.00 | 0.00 | 80 | 1020.0 |
| 20260507011545 | 57 | 265 | 0.0 | 2.0 | 0.00 | 0.00 | 0.00 | 79 | 1020.1 |
| 20260507010055 | 57 | 0 | 0.0 | 1.0 | 0.00 | 0.00 | 0.00 | 81 | 1020.2 |
| 20260507004548 | 57 | 0 | 0.0 | 4.0 | 0.00 | 0.00 | 0.00 | 79 | 1020.2 |
| 20260507003045 | 58 | 263 | 0.0 | 6.0 | 0.00 | 0.00 | 0.00 | 77 | 1020.2 |
| 20260507001550 | 58 | 0 | 0.0 | 5.0 | 0.00 | 0.00 | 0.00 | 77 | 1020.1 |
| 20260507000047 | 57 | 0 | 0.0 | 4.0 | 0.00 | 0.00 | 0.00 | 78 | 1020.1 |
| 20260506234545 | 57 | 0 | 0.0 | 3.0 | 0.00 | 0.00 | 0.00 | 78 | 1020.1 |
| 20260506233104 | 58 | 0 | 0.0 | 6.0 | 0.00 | 0.00 | 0.00 | 76 | 1020.2 |
| 20260506231549 | 59 | 0 | 0.0 | 8.0 | 0.00 | 0.00 | 0.00 | 76 | 1020.3 |
| 20260506224545 | 58 | 0 | 0.0 | 4.0 | 0.00 | 0.00 | 0.00 | 77 | 1020.2 |
| 20260506223047 | 57 | 0 | 0.0 | 4.0 | 0.00 | 0.00 | 0.00 | 78 | 1020.3 |
| 20260506221553 | 57 | 115 | 0.0 | 3.0 | 0.00 | 0.00 | 0.00 | 80 | 1020.4 |
| 20260506220046 | 57 | 0 | 0.0 | 3.0 | 0.00 | 0.00 | 0.00 | 80 | 1020.5 |
| 20260506214551 | 57 | 111 | 0.0 | 6.0 | 0.00 | 0.00 | 0.00 | 79 | 1020.4 |
| 20260506213046 | 57 | 0 | 0.0 | 7.0 | 0.00 | 0.00 | 0.00 | 80 | 1020.5 |
| 20260506211546 | 57 | 0 | 0.0 | 4.0 | 0.00 | 0.00 | 0.00 | 84 | 1020.6 |
| 20260506210047 | 57 | 0 | 0.0 | 4.0 | 0.00 | 0.00 | 0.00 | 84 | 1020.6 |
| 20260506204544 | 56 | 0 | 2.0 | 7.0 | 0.00 | 0.00 | 0.00 | 83 | 1020.5 |
| 20260506203047 | 56 | 0 | 0.0 | 4.0 | 0.00 | 0.00 | 0.00 | 86 | 1020.4 |
| 20260506201545 | 55 | 337 | 0.0 | 3.0 | 0.00 | 0.00 | 0.00 | 89 | 1020.4 |
| 20260506200047 | 56 | 333 | 0.0 | 5.0 | 0.00 | 0.00 | 0.00 | 88 | 1020.5 |
| 20260506194549 | 56 | 0 | 0.0 | 3.0 | 0.00 | 0.00 | 0.00 | 92 | 1020.3 |
| 20260506193044 | 55 | 0 | 0.0 | 4.0 | 0.00 | 0.00 | 0.00 | 91 | 1020.3 |
| 20260506191548 | 55 | 0 | 1.0 | 6.0 | 0.00 | 0.00 | 0.00 | 88 | 1020.3 |
| 20260506190047 | 55 | 0 | 0.0 | 5.0 | 0.00 | 0.00 | 0.00 | 90 | 1020.2 |
| 20260506184545 | 55 | 0 | 1.0 | 4.0 | 0.00 | 0.00 | 0.00 | 91 | 1020.2 |
| 20260506183046 | 55 | 0 | 0.0 | 2.0 | 0.00 | 0.00 | 0.00 | 92 | 1020.0 |
| 20260506181546 | 55 | 0 | 0.0 | 5.0 | 0.00 | 0.00 | 0.00 | 90 | 1020.2 |
| 20260506180047 | 55 | 0 | 0.0 | 6.0 | 0.00 | 0.00 | 0.00 | 89 | 1020.2 |
| 20260506174547 | 55 | 0 | 1.0 | 10.0 | 0.00 | 0.00 | 0.00 | 89 | 1019.6 |
| 20260506173104 | 55 | 0 | 0.0 | 4.0 | 0.00 | 0.00 | 0.00 | 90 | 1019.7 |
| 20260506171552 | 55 | 0 | 0.0 | 3.0 | 0.00 | 0.00 | 0.00 | 90 | 1020.0 |
| 20260506170047 | 54 | 0 | 0.0 | 2.0 | 0.00 | 0.00 | 0.00 | 90 | 1019.8 |
| 20260506164558 | 54 | 0 | 0.0 | 4.0 | 0.00 | 0.00 | 0.00 | 89 | 1019.7 |
| 20260506163045 | 54 | 0 | 0.0 | 3.0 | 0.00 | 0.00 | 0.00 | 91 | 1019.6 |
| 20260506161548 | 54 | 0 | 0.0 | 3.0 | 0.00 | 0.00 | 0.00 | 92 | 1019.5 |
| 20260506160059 | 54 | 0 | 0.0 | 2.0 | 0.00 | 0.00 | 0.00 | 93 | 1019.4 |
| 20260506154552 | 54 | 0 | 0.0 | 5.0 | 0.00 | 0.00 | 0.00 | 94 | 1019.1 |
| 20260506153047 | 53 | 0 | 0.0 | 0.0 | 0.00 | 0.00 | 0.00 | 94 | 1019.3 |
| 20260506151545 | 53 | 0 | 0.0 | 1.0 | 0.00 | 0.00 | 0.00 | 94 | 1019.5 |
| 20260506150045 | 53 | 0 | 0.0 | 1.0 | 0.00 | 0.00 | 0.00 | 94 | 1019.3 |
| 20260506144547 | 53 | 0 | 0.0 | 2.0 | 0.00 | 0.00 | 0.00 | 94 | 1019.1 |
| 20260506143045 | 53 | 0 | 0.0 | 2.0 | 0.00 | 0.00 | 0.00 | 94 | 1019.2 |
| 20260506141603 | 53 | 0 | 0.0 | 1.0 | 0.00 | 0.00 | 0.00 | 94 | 1019.2 |
| 20260506140048 | 53 | 0 | 0.0 | 1.0 | 0.00 | 0.00 | 0.00 | 93 | 1019.0 |
| 20260506134551 | 53 | 0 | 0.0 | 2.0 | 0.00 | 0.00 | 0.00 | 93 | 1019.1 |
| 20260506133045 | 53 | 0 | 0.0 | 4.0 | 0.00 | 0.00 | 0.00 | 92 | 1018.7 |
| 20260506131547 | 53 | 0 | 0.0 | 5.0 | 0.00 | 0.00 | 0.00 | 92 | 1018.7 |
| 20260506130047 | 53 | 0 | 0.0 | 2.0 | 0.00 | 0.00 | 0.00 | 93 | 1018.3 |
| 20260506124546 | 53 | 0 | 0.0 | 1.0 | 0.00 | 0.00 | 0.00 | 93 | 1018.1 |
| 20260506123048 | 52 | 0 | 0.0 | 0.0 | 0.00 | 0.00 | 0.00 | 93 | 1018.3 |
| 20260506121554 | 52 | 0 | 0.0 | 0.0 | 0.00 | 0.00 | 0.00 | 93 | 1018.1 |
| 20260506120118 | 52 | 0 | 0.0 | 2.0 | 0.00 | 0.00 | 0.00 | 94 | 1018.0 |
| 20260506114547 | 52 | 0 | 0.0 | 2.0 | 0.00 | 0.00 | 0.00 | 95 | 1018.0 |
| 20260506113046 | 52 | 0 | 0.0 | 4.0 | 0.00 | 0.00 | 0.00 | 95 | 1017.9 |
| 20260506111547 | 52 | 0 | 0.0 | 1.0 | 0.00 | 0.00 | 0.00 | 96 | 1017.6 |
| 20260506110044 | 51 | 0 | 0.0 | 1.0 | 0.00 | 0.00 | 0.00 | 96 | 1017.6 |
| 20260506104548 | 51 | 0 | 0.0 | 1.0 | 0.00 | 0.00 | 0.00 | 96 | 1017.4 |
| 20260506103046 | 51 | 0 | 0.0 | 3.0 | 0.00 | 0.00 | 0.00 | 96 | 1017.4 |
| 20260506101548 | 49 | 0 | 0.0 | 0.0 | 0.00 | 0.00 | 0.00 | 96 | 1017.4 |
| 20260506100043 | 48 | 0 | 0.0 | 0.0 | 0.00 | 0.00 | 0.00 | 95 | 1017.4 |
| 20260506094545 | 48 | 0 | 0.0 | 0.0 | 0.00 | 0.00 | 0.00 | 95 | 1017.3 |
| 20260506093050 | 48 | 0 | 0.0 | 0.0 | 0.00 | 0.00 | 0.00 | 95 | 1017.0 |
| 20260506091545 | 48 | 0 | 0.0 | 0.0 | 0.00 | 0.00 | 0.00 | 94 | 1017.0 |
| 20260506090045 | 48 | 0 | 0.0 | 0.0 | 0.00 | 0.00 | 0.00 | 95 | 1016.8 |
| 20260506084544 | 49 | 0 | 0.0 | 0.0 | 0.00 | 0.00 | 0.00 | 94 | 1016.6 |
| 20260506083044 | 49 | 0 | 0.0 | 0.0 | 0.00 | 0.00 | 0.00 | 94 | 1016.7 |
| 20260506081550 | 49 | 0 | 0.0 | 0.0 | 0.00 | 0.00 | 0.00 | 94 | 1016.5 |
| 20260506073050 | 50 | 0 | 0.0 | 0.0 | 0.00 | 0.00 | 0.00 | 94 | 1016.4 |
| 20260506071553 | 51 | 0 | 0.0 | 0.0 | 0.00 | 0.00 | 0.00 | 94 | 1016.3 |
| 20260506070107 | 51 | 0 | 0.0 | 0.0 | 0.00 | 0.00 | 0.00 | 93 | 1016.4 |
| 20260506061552 | 52 | 0 | 0.0 | 0.0 | 0.00 | 0.00 | 0.00 | 92 | 1016.2 |
| 20260506050114 | 54 | 0 | 0.0 | 0.0 | 0.00 | 0.00 | 0.00 | 88 | 1015.4 |
| 20260506044557 | 54 | 0 | 0.0 | 0.0 | 0.00 | 0.00 | 0.00 | 87 | 1015.4 |
| 20260506043048 | 55 | 0 | 0.0 | 0.0 | 0.00 | 0.00 | 0.00 | 86 | 1015.2 |
| 20260506041552 | 56 | 0 | 0.0 | 0.0 | 0.00 | 0.00 | 0.00 | 85 | 1015.2 |
| 20260506040048 | 57 | 0 | 0.0 | 0.0 | 0.00 | 0.00 | 0.00 | 84 | 1015.1 |
| 20260506034545 | 58 | 0 | 0.0 | 0.0 | 0.00 | 0.00 | 0.00 | 82 | 1015.0 |
| 20260506033043 | 59 | 0 | 0.0 | 0.0 | 0.00 | 0.00 | 0.00 | 81 | 1015.0 |
| 20260506031556 | 60 | 0 | 0.0 | 0.0 | 0.00 | 0.00 | 0.00 | 79 | 1015.0 |
| 20260506030058 | 61 | 0 | 0.0 | 1.0 | 0.00 | 0.00 | 0.00 | 78 | 1014.7 |
| 20260506024549 | 62 | 0 | 0.0 | 1.0 | 0.00 | 0.00 | 0.00 | 76 | 1014.8 |
| 20260506023042 | 62 | 0 | 0.0 | 1.0 | 0.00 | 0.00 | 0.00 | 75 | 1014.8 |
| 20260506021550 | 63 | 0 | 0.0 | 5.0 | 0.00 | 0.00 | 0.00 | 74 | 1014.7 |
| 20260506020046 | 63 | 0 | 0.0 | 4.0 | 0.00 | 0.00 | 0.00 | 74 | 1014.5 |